Volver al catálogo

IRIDIUM 33 DEB

LostPO
NORAD 46980·DEBRIS·🇺🇸 United States

Lanzado Sep 14, 1997 desde Baikonur Cosmodrome

Loading…

Próximos Pases (próximas 24 horas)

TLE

ObsoletoSource: Space-Track

Época: Aug 14, 2025, 06:23 UTC

1 46980U 97051ACN 25226.26621915  .00139230  00000-0  51170-2 0  9992
2 46980  86.3495  58.2860 0005231 142.2426 217.9189 15.27314682572612

Sigue IRIDIUM 33 DEB en tiempo real con AllMySat

Download on the App Store